Regional Weather Roundup
Issued by NWS

Home | Current Version | Previous Version | Text Only | Print | Product List | Glossary Off
Versions: 1 2 3 4 5 6 7 8 9 10 11 12 13 14 15 16 17 18 19 20 21 22 23 24 25 26 27 28 29 30 31 32 33 34 35 36 37 38 39 40 41 42 43 44 45 46 47 48 49 50

000
ASUS45 KSLC 271510
RWRUT

UTAH REGIONAL WEATHER ROUNDUP
NATIONAL WEATHER SERVICE SALT LAKE CITY UT
900 AM MDT MON JUL 27 2015

UTZ001>011-023>025-271600-

NORTHERN UTAH

CITY           SKY/WX    TMP DP  RH WIND       PRES   REMARKS
BRIGHAM CITY   SUNNY     70  38  31 NW29      29.85R
HILL AFB       SUNNY     76  43  30 S12       29.86R
LOGAN            N/A    N/A N/A N/A MISG      29.88R
OGDEN          SUNNY     75  53  46 W10       29.84R
PROVO AIRPORT  SUNNY     75  39  27 E12       29.89R
SALT LAKE CITY MOSUNNY   77  50  38 W13       29.84R
VERNAL         MOSUNNY   73  44  35 CALM      29.95S
WENDOVER       CLOUDY    64  37  36 NW24G40   29.92R
HEBER CITY     SUNNY     77  30  18 S3        29.93S
WEST JORDAN    SUNNY     79  34  19 SE18      29.87R

$$

UTZ012>022-026-027-271600-

SOUTHERN/CENTRAL UTAH

CITY           SKY/WX    TMP DP  RH WIND       PRES   REMARKS
BLANDING       MOSUNNY   71  51  49 SE6       30.19S
BRYCE CANYON   SUNNY     65  32  29 SE10      30.18S
CEDAR CITY     SUNNY     74  28  18 S17G23    30.02R
DELTA          SUNNY     74  24  15 S16       29.93R
HANKSVILLE     SUNNY     82  32  16 S15G24    29.95S
MILFORD        SUNNY     73  27  18 S17       29.97R
MOAB/CYNLANDS  MOSUNNY   80  45  28 S13       29.93S
PRICE          SUNNY     72  41  32 S5        30.00S
ST GEORGE      SUNNY     81  36  19 W5        29.90R
KANAB          SUNNY     72  43  35 CALM      30.09R

$$

REGIONAL REPORTS     COLORADO/ARIZONA

CITY           SKY/WX    TMP DP  RH WIND       PRES   REMARKS
CRAIG, CO      SUNNY     71  45  39 NE9       30.05F
GRAND JUNCTION MOSUNNY   74  49  41 E17       29.98R
RIFLE          MOSUNNY   68  47  46 CALM      30.05S
MONTROSE       MOSUNNY   70  51  51 SE3       30.10R
CORTEZ         SUNNY     75  51  43 SE12G17   30.13S
PAGE, AZ       SUNNY     82  36  19 SW5       29.98R
GRAND CANYON   SUNNY     69  32  25 SW12      30.19R
KINGMAN        SUNNY     81  32  17 CALM      29.96R
FLAGSTAFF      SUNNY     67  38  34 SW9       30.23S

$$

REGIONAL REPORTS    NEVADA/IDAHO/WYOMING

CITY           SKY/WX    TMP DP  RH WIND       PRES   REMARKS
LAS VEGAS, NV  SUNNY     85  36  17 NW5       29.82R
ELY            CLOUDY    66  31  27 NW17      30.09R
ELKO           SUNNY     60  45  57 CALM      30.08R
POCATELLO, ID  MOSUNNY   64  43  46 SW25G31   29.97R
BURLEY         LGT RAIN  51  47  86 SW15G22   30.04R
EVANSTON, WY   MOSUNNY   70  28  21 SW13G23   30.01S
ROCK SPRINGS   MOSUNNY   75  43  31 S18       30.00F
KEMMERER       SUNNY     70  27  19 S14G21    30.01F

$$



USA.gov is the U.S. government's official web portal to all federal, state and local government web resources and services.